Voltar ao catálogo

Sitro-AIS-65

AtivoComunicaçõesSSO
NORAD 67266·PAYLOAD·🇷🇺 Russia

Lançado Dec 28, 2025 de Vostochny Cosmodrome

Loading…

Próximas Passagens (próximas 24 horas)

TLE

AtualizadoSource: Space-Track

Época: Sep 13, 2026, 22:39 UTC

1 67266U 25313U   26256.94396789  .00007870  00000-0  31941-3 0  9990
2 67266  97.3889 330.4718 0014997  55.2477 305.0170 15.24769867 39473

Acompanhe Sitro-AIS-65 em tempo real com AllMySat

Download on the App Store